OBJECT D, 43761

Orbit data source: Space-Track

You're viewing an Uncataloged Satellite

Recently launched and/or uncataloged satellites may have evolving metadata. Metadata may include but not limited to: Owner, Maufacturer, Bus, Motor, and Mission.

OBJECT D, 43761 is a satellite in SSO that was launched on Mon, 03 Dec 2018 UTC via an FALCON 9 launch vehicle from the Air Force Western Test Range (AFWTR). Unknown objects in Earth's orbit typically refer to objects detected orbiting the Earth but have not yet been identified or cataloged. These objects could be anything from previously untracked satellites, spent rocket stages, debris from satellite collisions, or even natural meteoroids temporarily captured by Earth's gravity.

Loading next visibility...
Identifier
43761, 2018-099D
Orbit
SSO
Country
Flag of TBDTBD
Related business
None
Manufacturer
Unknown
Mission
Non-operational Amateur Technology
Bus & Motor
Unknown
Mass
Unknown
Launch date (UTC)
2018-12-03 (7 years ago)
Launch vehicle
FALCON 9
Launch site
Air Force Western Test Range (AFWTR)
Object type
Unknown
Shape & HBR
Box, 0.1 m
Radar Cross Section
0.015 m², Small (<0.1 m²)

Expand to show TLE details & history
Last TLE update: 9 hours ago

TLE from 9 hours ago
0 OBJECT D
1 43761U 18099D   25311.09929622  .00003058  00000-0  21831-3 0  9993
2 43761  97.4501 354.8589 0012614  31.7121 328.4863 15.05181493378683
Epoch: 2025-11-07T02:22Z
TLE epoch observation values (Epoch: 2025-11-07T02:22:59.193Z)
Latitude
-0.00005°
Longitude
-87.43586°
Altitude
546.568 km
Speed
7.593 km/s
True Right ascension
23h 39m 26s
True Declination
0° 00' 00"
Sunlit
Object was in full shadow at epoch
Visualization orbit readout
Latitude
Unknown
Longitude
Unknown
Altitude
Unknown
Speed
Unknown
Apparent Right ascension
Unknown
Apparent Declination
Unknown
Sunlit
N/A
Visualization observer readout
Local Sidereal Time
07:08:47
Azimuth
Unknown
Elevation
Unknown
Doppler factor
Unknown
Orbital elements
Apogee altitude
556.673 km
Perigee altitude
539.2 km
Semi-major axis
6,926.073 km
Eccentricity
0.00126
Inclination
97.4501°
RAAN
354.8589°
Arg. of periapsis
31.7121°
True anomaly
328.41064°
Mean anomaly
328.4863°
Eccentric anomaly
328.44848°
Mean motion
3.76541 °/min
Orbital period
95.61 mins
BSTAR
0.00021831
Loading maneuver chart data...
Computing Atmospheric mass density...
Loading historical data...
Loading historical data...
Loading historical data...
Loading historical data...
Loading historical data...
Loading historical data...
Loading historical data...

Documentation

Showing up to 5 results
|